Location: Castelnau
(43.3061°N, 1.0174°E)
Time: 22:00:20
(UTC+00:00)

Daily predictions for brighter satellites

Satellite Brightness Start Highest point End
(mag) Time Altitude Azimuth Time Altitude Azimuth Time Altitude Azimuth
NOSS 3-4 (A) 3.7 19:02:52 10° SW 19:08:40 75° NW 19:14:56 10° NE
NOSS 3-4 (C) 3.7 19:02:58 10° SW 19:08:47 76° NW 19:15:02 10° NE
SL-08 RB Rocket 3.9 19:04:38 10° SSE 19:09:17 86° WSW 19:13:57 10° NNW
Cosmos 405 3.5 19:10:51 10° SSE 19:14:01 35° E 19:17:14 10° NNE
NOSS 7 (H) 4.3 19:11:48 10° SW 19:15:27 90° NW 19:18:28 10° NE
Cosmos 2058 Rocket 3.6 19:12:00 10° SSE 19:15:58 36° E 19:19:57 10° NNE
SAR-Lupe-1 4.1 19:12:33 10° NNE 19:16:09 90° E 19:19:44 10° SSW
Meteor 2-10 Rocket 3.6 19:12:28 10° S 19:17:34 60° E 19:22:56 10° NNE
Cosmos 1953 Rocket 3.6 19:16:28 10° N 19:20:47 60° E 19:25:02 10° SSE
ATLAS 2AS CENTAUR R/B 3.1 19:14:09 10° SSW 19:22:04 86° SE 19:29:55 10° NE
Lacrosse 5 rocket 3.9 19:20:25 10° WNW 19:23:22 19° NNW 19:26:26 10° NNE
In-Cosmos 22 Rocket 4.3 19:17:48 10° N 19:23:40 78° E 19:29:28 10° SSE
USA 186 1.7 19:23:02 10° SSE 19:26:14 68° ENE 19:29:20 10° N
Cosmos 2098 Rocket 4.5 19:19:17 10° N 19:26:23 63° E 19:33:42 10° SSE
Cosmos 2251 Rocket 4.1 19:21:43 10° SSE 19:26:36 37° ESE 19:31:29 10° NE
Cosmos 2237 Rocket 3.7 19:22:56 10° N 19:27:06 21° NE 19:31:14 10° E
Cosmos 389 Rocket 4.4 19:26:00 11° ESE 19:27:36 14° E 19:29:24 10° ENE
Cosmos 1689 Rocket 3.8 19:27:10 10° N 19:29:47 35° WNW 19:32:24 10° SW
Exosat Rocket 4.3 19:25:38 10° NNW 19:31:49 43° ENE 19:36:26 12° SE
Cosmos 1092 Rocket 4.1 19:25:48 10° N 19:32:01 62° E 19:38:07 10° SSE
SJ-6B 2.7 19:31:30 10° SSE 19:35:09 62° ENE 19:38:53 10° N
Ariane Rocket 3.3 19:30:52 10° SE 19:35:42 47° ENE 19:40:32 10° N
NOSS 7 (E) 4.5 19:31:44 10° SW 19:35:49 86° SE 19:39:03 10° NE
Cosmos 1825 Rocket 4.2 19:32:50 10° NNW 19:37:09 58° W 19:41:29 10° S
BREEZE-M DEB (TANK) 2.6 19:31:26 10° SW 19:37:19 44° SSE 19:39:40 11° ENE
Resurs 01 Rocket 2.9 19:36:07 13° ESE 19:39:07 25° ENE 19:42:46 10° NNE
Cosmos 1892 2.8 19:37:09 10° N 19:40:56 78° W 19:44:42 10° S
Cosmos 2227 Rocket 3.7 19:40:19 13° ESE 19:41:58 15° E 19:45:03 10° ENE
MOS 1 4.4 19:37:34 10° SSE 19:43:05 59° ENE 19:48:39 10° N
Cosmos 2322 Rocket 4.5 19:41:53 10° NW 19:46:17 24° W 19:50:42 10° SSW
Resurs 1-3 3.9 19:44:04 12° SE 19:47:58 49° ENE 19:52:12 10° N
Cosmos 2297 Rocket 3.3 19:44:41 10° SSE 19:48:57 23° E 19:53:15 10° NE
IRS-1A Rocket 4.3 19:44:19 10° SSE 19:49:49 68° ENE 19:55:28 10° N
Cosmos 1825 2.2 19:47:09 10° N 19:50:53 58° E 19:54:05 14° SSE
Cosmos 44 3.4 19:46:20 10° SSW 19:51:22 77° ESE 19:56:44 10° NE
Cosmos 1408 2.6 19:47:49 10° NNW 19:51:23 76° W 19:54:55 10° S
Cosmos 614 Rocket 4.2 19:47:27 10° S 19:52:19 44° ESE 19:57:09 10° NNE
CZ-4 R/B 4.5 19:50:07 10° WSW 19:52:24 14° W 19:54:41 10° WNW
Cosmos 2219 4.3 19:49:45 13° SE 19:53:15 22° E 19:57:27 10° NE
Cosmos 2333 Rocket 2.4 19:47:58 10° NNW 19:53:45 79° WSW 19:59:27 10° SSE
COSMOS 2487 3.8 19:51:08 10° SW 19:54:22 41° WNW 19:57:38 10° N
Cosmos 1992 Rocket 4.0 19:54:26 10° NNW 19:59:41 86° WSW 20:04:33 12° SSE
Cosmos 1428 Rocket 4.5 19:53:27 10° N 19:59:44 79° E 20:06:02 10° S
ATLAS 3B R/B 2.8 19:55:10 10° NNW 20:02:14 75° NE 20:07:47 19° SE
FALCON 9 DEB 3.6 19:59:58 10° WSW 20:03:21 62° NNW 20:06:46 10° NE
Cosmos 2322 4.1 19:58:02 10° NNW 20:03:38 63° WSW 20:09:11 10° S
Cosmos 2279 Rocket 4.1 19:58:35 10° SSE 20:04:34 53° E 20:10:34 10° NNE
USA 215 4.0 20:00:59 14° E 20:06:21 44° NNE 20:12:28 10° NW
SL-4 R/B 3.5 20:07:03 10° S 20:09:22 21° SSE 20:09:22 21° SSE
Cosmos 2026 Rocket 4.0 20:07:57 10° N 20:14:03 81° W 20:20:11 10° S
SL-8 R/B 3.7 20:11:06 10° WNW 20:15:57 87° SSW 20:18:25 29° ESE
Orbus 7S? 4.2 20:13:51 10° WSW 20:16:32 44° NNW 20:21:12 10° NE
Cosmos 407 Rocket 3.9 20:14:01 16° SSE 20:17:35 39° ESE 20:22:23 10° NE
RESURS DK-1 3.3 20:14:33 10° SW 20:18:34 51° WNW 20:22:38 10° NNE
IRIDIUM 114 4.4 20:15:00 17° SSE 20:18:53 57° E 20:24:00 10° N
Meteor 2-1 Rocket 4.4 20:14:14 10° SSW 20:20:03 83° WNW 20:26:01 10° N
Cosmos 1818 3.8 20:15:44 10° SW 20:21:10 74° NW 20:26:39 10° NNE
SL-16 R/B 3.8 20:17:41 10° N 20:21:52 20° NE 20:24:13 16° E
CZ-2C R/B 4.0 20:18:53 10° NNE 20:23:07 42° E 20:24:29 32° SE
Cosmos 1980 4.0 20:17:33 10° NNW 20:23:08 52° ENE 20:25:47 29° ESE
Cosmos 1356 3.2 20:23:38 10° N 20:27:04 85° E 20:28:00 45° SSE
IRIDIUM 103 4.2 20:24:07 18° S 20:28:00 70° E 20:33:12 10° N
SPOT 5 4.3 20:28:33 19° ENE 20:29:13 20° ENE 20:32:34 10° NNE
Cosmos 1634 Rocket 4.5 20:24:33 10° SSW 20:30:45 62° W 20:36:58 10° N
Cosmos 2266 Rocket 4.4 20:25:30 10° N 20:31:36 45° ENE 20:34:06 31° SE
ARIANE 5 R/B 3.5 20:32:24 30° E 20:33:01 31° ENE 20:36:53 10° N
Cosmos 2058 3.9 20:29:16 10° NNW 20:33:18 46° W 20:36:37 14° SSW
Cosmos 909 Rocket 4.2 20:26:58 10° SW 20:33:19 74° WNW 20:39:46 10° NNE
Terra 3.6 20:33:16 16° ENE 20:33:47 17° ENE 20:36:45 10° NNE
COSMOS 2428 3.4 20:28:51 10° NW 20:34:25 53° WSW 20:38:35 18° S
Cosmos 2344 3.8 20:27:35 10° SW 20:35:03 69° NW 20:42:56 10° NE
Cosmos 1633 2.8 20:31:54 10° N 20:35:24 47° E 20:35:24 47° E
Cosmos 1455 4.4 20:33:38 10° SW 20:36:48 26° WNW 20:39:59 10° NNW
Abrixas rocket 4.3 20:35:26 10° W 20:35:42 12° W 20:35:42 12° W
OBJECT-B 3.5 20:35:22 10° SW 20:37:39 18° W 20:39:58 10° NW
Cosmos-2242 3.4 20:37:39 41° E 20:37:49 42° E 20:41:54 10° NNE
Meteor 2-3 Rocket 4.1 20:33:23 10° N 20:38:57 47° ENE 20:40:44 36° ESE
Cosmos 1140 Rocket 3.5 20:36:41 27° S 20:39:14 54° ESE 20:44:14 10° NNE
Timation 2 Rocket 4.1 20:36:01 10° S 20:42:23 52° ESE 20:48:32 10° NE
Cosmos 2219 Rocket 3.4 20:37:51 10° NW 20:43:03 37° WSW 20:47:33 13° SSW
USA 245 3.6 20:44:18 47° ENE 20:44:18 47° ENE 20:47:33 10° N
Spot 2 Rocket 3.9 20:44:16 39° ESE 20:45:27 47° ENE 20:50:19 10° N
IRIDIUM 106 4.3 20:42:25 18° S 20:46:17 81° W 20:51:32 10° N
Cosmos 2151 2.9 20:49:13 10° N 20:53:33 78° E 20:54:07 65° SE
Cosmos 2180 Rocket 4.5 20:48:30 12° S 20:54:13 82° W 21:00:24 10° N
Cosmos 405 Rocket 4.0 20:54:25 10° NNW 20:58:08 37° W 20:59:43 26° SW
BREEZE-M (TANK) 3.8 20:40:42 10° WNW 20:58:17 72° SW 20:59:58 45° SSE
Cosmos 1076 Rocket 4.4 20:56:15 10° NNW 21:00:26 46° W 21:02:10 29° SSW
Cosmos 389 Rocket 4.1 20:59:43 17° SW 21:01:53 34° WNW 21:05:10 10° N
Lacrosse 5 rocket 4.2 21:01:57 10° NNW 21:03:59 13° N 21:06:04 10° NNE
Cosmos 1655 Rocket 3.9 20:58:23 10° N 21:04:43 89° W 21:07:15 39° S
Landsat 7 4.1 21:03:43 39° SSW 21:05:17 61° W 21:10:01 10° NNW
Cosmos 1812 Rocket 4.4 21:04:08 21° SW 21:06:50 50° WNW 21:11:12 10° N
BREEZE M DEB (TANK) 3.4 21:01:03 10° W 21:08:36 50° NNW 21:09:52 32° NNE
SPOT 1/Viking Rocket 3.5 21:07:32 51° S 21:08:54 84° WSW 21:14:10 10° NNW
Cosmos 2237 Rocket 2.3 21:06:07 10° NNW 21:11:44 71° WSW 21:13:12 49° S
IGS 5A 4.5 21:10:48 33° SW 21:11:52 40° W 21:15:49 10° NNW
Cosmos 1190 Rocket 3.9 21:09:55 36° SSW 21:12:09 88° WNW 21:17:24 10° NNE
Resurs 01 Rocket 3.0 21:13:40 24° SW 21:15:27 33° W 21:19:31 10° NNW
COSMOS 2455 3.0 21:20:46 50° E 21:20:46 50° E 21:25:55 10° NE
CARTOSAT-1 3.6 21:20:55 74° NNE 21:20:55 74° NNE 21:24:54 10° N
Okean 3 Rocket 3.9 21:16:19 10° N 21:20:14 56° NE 21:20:14 56° NE
Cosmos 1766 Rocket 4.0 21:17:25 10° N 21:20:58 52° NNE 21:20:58 52° NNE
Cosmos 2082 4.0 21:24:17 47° ENE 21:24:17 47° ENE 21:28:45 10° NNE
Cosmos 1763 Rocket 4.5 21:18:54 10° N 21:23:15 32° NE 21:23:15 32° NE
Cosmos 2227 Rocket 2.2 21:21:56 26° SSW 21:25:16 79° WNW 21:30:58 10° NNE
Cosmos 676 Rocket 3.9 21:30:06 76° ENE 21:30:06 76° ENE 21:35:02 10° NNE
Cosmos 2297 Rocket 2.8 21:27:03 10° SW 21:32:34 54° WNW 21:38:08 10° NNE
Timation 1 Rocket 4.2 21:35:59 72° ESE 21:35:59 72° ESE 21:41:55 10° NNE
Cosmos 2219 3.8 21:31:27 10° SW 21:36:57 55° WNW 21:42:29 10° NNE
USA 215 3.1 21:48:19 65° S 21:49:07 72° SW 21:55:41 10° NW
ATLAS 3B R/B 4.4 21:46:50 10° WNW 21:52:21 24° WSW 21:55:04 20° SW
ERS-1 Rocket 3.3 21:54:28 61° W 21:54:28 61° W 21:59:07 10° NNW
SL-16 R/B 2.4 22:00:54 10° NNW 22:06:06 68° WNW 22:06:06 68° WNW
SPOT 5 3.8 22:07:46 41° WNW 22:07:46 41° WNW 22:11:26 10° NNW
ARIANE 5 R/B 4.4 22:09:56 25° W 22:09:56 25° W 22:13:09 10° NW
Terra 2.7 22:12:08 47° NW 22:12:08 47° NW 22:15:46 10° NNW
Cosmos 1745 Rocket 4.3 22:16:25 10° N 22:21:55 57° NE 22:21:55 57° NE
SeaSat 1 4.1 22:19:05 10° NNE 22:21:11 25° NE 22:21:11 25° NE
S3M 4.3 22:34:13 61° NE 22:34:13 61° NE 22:39:34 10° NNE
Cosmos 1943 4.1 22:29:51 10° NNW 22:34:14 43° NNE 22:34:14 43° NNE
Lacrosse 5 rocket 3.8 22:41:03 10° NNW 22:43:44 21° N 22:43:44 21° N
USA 229 DEB 3.9 22:42:32 10° NNW 22:49:52 70° NE 22:50:00 70° ENE
USA 229 3.9 22:42:37 10° NNW 22:49:57 69° NE 22:50:08 69° ENE
Cosmos 2263 Rocket 3.2 23:07:30 41° N 23:07:30 41° N 23:11:07 10° NNE
COSMOS 2455 4.4 23:03:48 23° W 23:06:17 31° NW 23:11:35 10° NNE
NOSS 3-1 (A) 4.0 23:00:12 10° NW 23:07:49 80° NE 23:07:58 80° ENE
